Home   Weather   Whistler   Past weeks

Flag for Canada Past Weather in Whistler, British Columbia, Canada — Yesterday and Last 2 Weeks

Now
69 °F

Mild.


Feels Like: 69 °F
Forecast: 50 / 78 °F
Wind: 8 mph from South

Location: Squamish Airport

Current Time: Jul 28, 2017 at 12:15:48 pm

Latest Report: Jul 28, 2017 at 11:00 am


Visibility: N/A

Pressure: 30.06 "Hg (27.80 "Hg at 674m altitude)

Humidity: 60%

Dew Point: 55 °F

Location of WhistlerLocation

Past Weather in Whistler — Graph

°F

Whistler Temperature Yesterday

Maximum temperature yesterday: 75 °F (at 3:00 pm)
Minimum temperature yesterday: 58 °F (at 6:00 am)
Average temperature yesterday: 66 °F

High & Low Weather Summary for the Past Weeks

 TemperatureHumidityPressure
High84 °F (Jul 25, 5:00 pm)100% (Jul 20, 5:00 am)30.19 "Hg (Jul 20, 5:00 am)
Low49 °F (Jul 17, 6:00 am)26% (Jul 18, 6:00 pm)29.90 "Hg (Jul 24, 6:00 pm)
Average65 °F68%30.05 "Hg
* Reported Jul 13 11:00 am — Jul 28 11:00 am, Whistler. Weather by CustomWeather, © 2017

Note: Actual official high and low records may vary slightly from our data, if they occured in-between our weather recording intervals... More about our weather records

Advertising

Whistler Weather History for the Previous 24 Hours

Scroll right to see more
 ConditionsComfort  
Time TempWeatherWind HumidityBarometerVisibility
11:00 am
Fri, Jul 28
69 °FMild.8 mph60%30.06 "HgN/A
10:00 am67 °FMild.7 mph66%30.07 "HgN/A
9:00 am64 °FMild.3 mph72%30.08 "HgN/A
8:00 am61 °FCool.1 mph82%30.09 "HgN/A
7:00 am54 °FCool.1 mph96%30.09 "HgN/A
6:00 am54 °FCool.No wind96%30.09 "HgN/A
5:00 am53 °FCool.No wind96%30.08 "HgN/A
4:00 am54 °FCool.No wind94%30.07 "HgN/A
3:00 am56 °FCool.1 mph93%30.07 "HgN/A
2:00 am56 °FCool.No wind92%30.06 "HgN/A
1:00 am58 °FCool.2 mph89%30.06 "HgN/A
12:00 am59 °FCool.1 mph87%30.06 "HgN/A
11:00 pm
Thu, Jul 27
60 °FCool.1 mph86%30.06 "HgN/A
10:00 pm64 °FMild.3 mph67%30.05 "HgN/A
9:00 pm67 °FMild.5 mph61%30.03 "HgN/A
8:00 pm68 °FMild.7 mph57%30.02 "HgN/A
7:00 pm72 °FMild.8 mph55%30.02 "HgN/A
6:00 pm74 °FMild.7 mph50%30.01 "HgN/A
5:00 pm73 °FMild.8 mph52%30.02 "HgN/A
4:00 pm73 °FMild.9 mph52%30.03 "HgN/A
3:00 pm75 °FMild.8 mph49%30.03 "HgN/A
2:00 pm74 °FMild.9 mph52%30.05 "HgN/A
1:00 pm73 °FMild.10 mph54%30.05 "HgN/A
12:00 pm72 °FMild.9 mph57%30.04 "HgN/A
Weather by CustomWeather, © 2017

See weather overviewHow to use our weather pages